SIRIUS-1

Last updated on Jan. 5, 2019, 2:57 a.m. UTC

1 26390U 00035A   19003.39855642  .00000096  00000-0  00000-0 0  9998
2 26390  59.4283 214.6789 0001530  61.9196 112.1472  1.57877111 28928
UTC
Height (km)
Latitude
Longitude
Inclination
Orbital Period
UTC large
Height (km)
Speed (km/s)
/
Latitude / Longitude
Inclination (degrees)
Orbital Period (minutes)
Azimuth
Elevation
Range (km)
Doppler Factor
iOS Compass Heading
iOS Angle

Next 30 passes for location: Hong Kong

Rise time Rise Azimuth (degrees) Set time Set Azimuth (degrees) Duration Max altitude (degrees)

No matching passes for this satellites